Time,TemperatureF,DewpointF,PressureIn,WindDirection,WindDirectionDegrees,WindSpeedMPH,WindSpeedGustMPH,Humidity,HourlyPrecipIn,Conditions,Clouds,dailyrainin,SoftwareType,DateUTC
2013-03-12 07:20:00,53.5,48.8,29.64,WNW,292,7.0,20.0,84,0.00,CLR,,0.04,WeatherDisplay:10.37,2013-03-12 06:20:00,
2013-03-12 07:30:00,53.6,48.9,29.64,West,278,9.0,20.0,84,0.00,CLR,,0.04,WeatherDisplay:10.37,2013-03-12 06:30:00,
2013-03-12 07:40:00,53.8,48.5,29.64,WNW,285,7.0,14.0,82,0.00,CLR,,0.04,WeatherDisplay:10.37,2013-03-12 06:40:00,
2013-03-12 07:50:00,54.2,48.5,29.64,WNW,295,7.0,18.0,81,0.00,CLR,,0.04,WeatherDisplay:10.37,2013-03-12 06:50:00,
2013-03-12 08:00:00,54.0,48.3,29.64,WNW,291,12.0,17.0,81,0.00,CLR,,0.04,WeatherDisplay:10.37,2013-03-12 07:00:00,
2013-03-12 08:10:00,54.2,48.8,29.65,WNW,292,8.0,14.0,82,0.00,CLR,,0.04,WeatherDisplay:10.37,2013-03-12 07:10:00,
2013-03-12 08:20:00,53.9,48.9,29.65,WNW,298,5.0,12.0,83,0.00,CLR,,0.04,WeatherDisplay:10.37,2013-03-12 07:20:00,
2013-03-12 08:30:00,53.5,48.8,29.66,NNW,331,6.0,9.0,84,0.00,CLR,,0.04,WeatherDisplay:10.37,2013-03-12 07:30:00,
2013-03-12 08:40:00,53.9,49.2,29.66,NW,305,3.0,7.0,84,0.00,CLR,,0.04,WeatherDisplay:10.37,2013-03-12 07:40:00,
2013-03-12 08:50:00,54.7,49.0,29.66,WNW,296,6.0,9.0,81,0.00,CLR,,0.04,WeatherDisplay:10.37,2013-03-12 07:50:00,
2013-03-12 09:00:00,55.4,49.3,29.66,WNW,298,3.0,10.0,80,0.00,CLR,,0.04,WeatherDisplay:10.37,2013-03-12 08:00:00,
2013-03-12 09:10:00,55.2,48.1,29.66,WNW,295,8.0,13.0,77,0.00,CLR,,0.04,WeatherDisplay:10.37,2013-03-12 08:10:00,
2013-03-12 09:20:00,55.4,48.3,29.66,WNW,300,5.0,14.0,77,0.00,CLR,,0.04,WeatherDisplay:10.37,2013-03-12 08:20:00,
2013-03-12 09:30:00,55.5,48.4,29.66,West,281,5.0,13.0,77,0.00,CLR,,0.04,WeatherDisplay:10.37,2013-03-12 08:30:00,
2013-03-12 09:40:00,55.7,47.9,29.66,WNW,288,6.0,18.0,75,0.00,CLR,,0.04,WeatherDisplay:10.37,2013-03-12 08:40:00,
2013-03-12 09:50:00,55.7,47.1,29.66,WNW,285,7.0,18.0,73,0.00,CLR,,0.04,WeatherDisplay:10.37,2013-03-12 08:50:00,
2013-03-12 10:00:00,56.0,47.1,29.66,WNW,289,5.0,14.0,72,0.00,CLR,,0.04,WeatherDisplay:10.37,2013-03-12 09:00:00,
2013-03-12 10:10:00,56.2,47.7,29.66,NW,307,5.0,13.0,73,0.00,CLR,,0.04,WeatherDisplay:10.37,2013-03-12 09:10:00,
2013-03-12 10:20:00,56.5,46.5,29.66,WNW,291,12.0,16.0,69,0.00,CLR,,0.04,WeatherDisplay:10.37,2013-03-12 09:20:00,
2013-03-12 10:30:00,56.5,47.6,29.66,WNW,283,5.0,15.0,72,0.00,CLR,,0.04,WeatherDisplay:10.37,2013-03-12 09:30:00,
2013-03-12 10:40:00,57.2,47.5,29.66,West,270,7.0,12.0,70,0.00,CLR,,0.04,WeatherDisplay:10.37,2013-03-12 09:40:00,
2013-03-12 10:50:00,56.5,47.2,29.66,West,276,6.0,14.0,71,0.00,CLR,,0.04,WeatherDisplay:10.37,2013-03-12 09:50:00,
2013-03-12 11:00:00,55.9,47.7,29.66,WNW,291,5.0,14.0,74,0.00,CLR,,0.04,WeatherDisplay:10.37,2013-03-12 10:00:00,
2013-03-12 11:10:00,56.4,48.2,29.66,West,273,3.0,10.0,74,0.00,CLR,,0.04,WeatherDisplay:10.37,2013-03-12 10:10:00,
2013-03-12 11:20:00,56.3,49.6,29.66,WSW,252,2.0,9.0,78,0.00,CLR,,0.04,WeatherDisplay:10.37,2013-03-12 10:20:00,
2013-03-12 11:30:00,56.3,48.9,29.65,West,279,5.0,12.0,76,0.00,CLR,,0.04,WeatherDisplay:10.37,2013-03-12 10:30:00,
2013-03-12 11:40:00,57.3,48.7,29.65,WSW,252,5.0,13.0,73,0.00,CLR,,0.04,WeatherDisplay:10.37,2013-03-12 10:40:00,
2013-03-12 11:50:00,58.5,48.8,29.65,West,273,6.0,14.0,70,0.00,CLR,,0.04,WeatherDisplay:10.37,2013-03-12 10:50:00,
2013-03-12 12:00:00,58.8,50.2,29.65,West,267,7.0,16.0,73,0.00,CLR,,0.04,WeatherDisplay:10.37,2013-03-12 11:00:00,
2013-03-12 12:10:00,59.2,52.0,29.65,SW,216,5.0,13.0,77,0.00,CLR,,0.04,WeatherDisplay:10.37,2013-03-12 11:10:00,
2013-03-12 12:20:00,58.3,50.7,29.65,SW,223,6.0,20.0,76,0.00,CLR,,0.04,WeatherDisplay:10.37,2013-03-12 11:20:00,
2013-03-12 12:30:00,58.0,51.5,29.64,SW,214,8.0,20.0,79,0.00,CLR,,0.04,WeatherDisplay:10.37,2013-03-12 11:30:00,
2013-03-12 12:40:00,57.7,50.2,29.64,SW,234,3.0,16.0,76,0.00,CLR,,0.04,WeatherDisplay:10.37,2013-03-12 11:40:00,
2013-03-12 12:50:00,57.8,50.9,29.64,SW,216,5.0,16.0,78,0.00,CLR,,0.04,WeatherDisplay:10.37,2013-03-12 11:50:00,
2013-03-12 13:00:00,58.4,50.8,29.64,SW,224,8.0,18.0,76,0.00,CLR,,0.04,WeatherDisplay:10.37,2013-03-12 12:00:00,
2013-03-12 13:10:00,58.2,51.1,29.64,SSW,195,8.0,20.0,77,0.00,CLR,,0.04,WeatherDisplay:10.37,2013-03-12 12:10:00,
2013-03-12 13:20:00,58.2,51.4,29.64,SSW,205,5.0,20.0,78,0.00,CLR,,0.04,WeatherDisplay:10.37,2013-03-12 12:20:00,
2013-03-12 13:30:00,57.4,50.9,29.63,SW,235,8.0,15.0,79,0.00,CLR,,0.04,WeatherDisplay:10.37,2013-03-12 12:30:00,
2013-03-12 13:40:00,57.1,51.0,29.63,WSW,241,6.0,14.0,80,0.00,CLR,,0.04,WeatherDisplay:10.37,2013-03-12 12:40:00,
2013-03-12 13:50:00,57.5,51.1,29.62,SW,234,3.0,13.0,79,0.00,CLR,,0.04,WeatherDisplay:10.37,2013-03-12 12:50:00,
2013-03-12 14:00:00,57.7,51.5,29.62,SW,232,6.0,14.0,80,0.00,CLR,,0.04,WeatherDisplay:10.37,2013-03-12 13:00:00,
2013-03-12 14:10:00,57.8,52.0,29.62,South,187,5.0,17.0,81,0.00,CLR,,0.04,WeatherDisplay:10.37,2013-03-12 13:10:00,
2013-03-12 14:20:00,57.0,51.5,29.62,SSW,210,5.0,15.0,82,0.00,CLR,,0.04,WeatherDisplay:10.37,2013-03-12 13:20:00,
2013-03-12 14:30:00,55.5,48.7,29.61,SW,217,3.0,16.0,78,0.03,RA,,0.07,WeatherDisplay:10.37,2013-03-12 13:30:00,
2013-03-12 14:40:00,54.7,50.0,29.61,South,182,3.0,9.0,84,0.00,RA,,0.07,WeatherDisplay:10.37,2013-03-12 13:40:00,
2013-03-12 14:50:00,55.2,52.3,29.60,SW,222,5.0,12.0,90,0.00,RA,,0.07,WeatherDisplay:10.37,2013-03-12 13:50:00,
2013-03-12 15:00:00,55.4,52.5,29.59,SW,217,7.0,27.0,90,0.01,RA,,0.08,WeatherDisplay:10.37,2013-03-12 14:00:00,
2013-03-12 15:10:00,55.5,52.6,29.59,SW,231,10.0,22.0,90,0.00,RA,,0.08,WeatherDisplay:10.37,2013-03-12 14:10:00,
2013-03-12 15:20:00,55.5,52.6,29.59,WSW,250,8.0,20.0,90,0.00,RA,,0.08,WeatherDisplay:10.37,2013-03-12 14:20:00,
2013-03-12 15:30:00,55.4,52.8,29.58,WSW,255,6.0,17.0,91,0.00,CLR,,0.08,WeatherDisplay:10.37,2013-03-12 14:30:00,
2013-03-12 15:40:00,54.7,51.5,29.58,West,281,7.0,15.0,89,0.00,CLR,,0.08,WeatherDisplay:10.37,2013-03-12 14:40:00,
2013-03-12 15:50:00,53.5,48.1,29.58,West,265,6.0,16.0,82,0.06,RA,,0.13,WeatherDisplay:10.37,2013-03-12 14:50:00,
2013-03-12 16:00:00,53.2,49.4,29.58,SW,214,7.0,14.0,87,0.01,RA,,0.14,WeatherDisplay:10.37,2013-03-12 15:00:00,
2013-03-12 16:10:00,52.0,48.6,29.57,WNW,299,3.0,12.0,88,0.01,RA,,0.15,WeatherDisplay:10.37,2013-03-12 15:10:00,
2013-03-12 16:20:00,54.2,52.2,29.56,WSW,237,10.0,21.0,93,0.00,RA,,0.15,WeatherDisplay:10.37,2013-03-12 15:20:00,
2013-03-12 16:30:00,54.3,49.2,29.57,West,260,10.0,24.0,83,0.00,RA,,0.15,WeatherDisplay:10.37,2013-03-12 15:30:00,
2013-03-12 16:40:00,53.9,48.5,29.57,West,265,8.0,24.0,82,0.00,CLR,,0.15,WeatherDisplay:10.37,2013-03-12 15:40:00,
2013-03-12 16:50:00,53.9,47.9,29.57,WSW,255,8.0,26.0,80,0.00,CLR,,0.15,WeatherDisplay:10.37,2013-03-12 15:50:00,
2013-03-12 17:00:00,53.8,48.1,29.57,West,266,8.0,25.0,81,0.00,CLR,,0.15,WeatherDisplay:10.37,2013-03-12 16:00:00,
2013-03-12 17:10:00,53.7,47.7,29.57,WNW,283,8.0,20.0,80,0.00,CLR,,0.15,WeatherDisplay:10.37,2013-03-12 16:10:00,
2013-03-12 17:20:00,53.5,47.8,29.58,WSW,251,6.0,23.0,81,0.00,CLR,,0.15,WeatherDisplay:10.37,2013-03-12 16:20:00,
2013-03-12 17:30:00,53.0,47.3,29.58,WSW,252,6.0,22.0,81,0.00,CLR,,0.15,WeatherDisplay:10.37,2013-03-12 16:30:00,
2013-03-12 17:40:00,52.7,46.7,29.58,SW,218,9.0,21.0,80,0.00,CLR,,0.15,WeatherDisplay:10.37,2013-03-12 16:40:00,
2013-03-12 17:50:00,52.1,46.4,29.58,SW,214,7.0,24.0,81,0.00,CLR,,0.15,WeatherDisplay:10.37,2013-03-12 16:50:00,
2013-03-12 18:00:00,51.8,46.2,29.58,WSW,255,7.0,23.0,81,0.00,CLR,,0.15,WeatherDisplay:10.37,2013-03-12 17:00:00,
2013-03-12 18:10:00,51.4,47.0,29.58,WSW,238,7.0,23.0,85,0.00,CLR,,0.15,WeatherDisplay:10.37,2013-03-12 17:10:00,
2013-03-12 18:20:00,51.0,46.7,29.58,WSW,251,7.0,20.0,85,0.00,CLR,,0.15,WeatherDisplay:10.37,2013-03-12 17:20:00,
2013-03-12 18:30:00,51.0,46.6,29.58,WSW,243,12.0,18.0,85,0.00,CLR,,0.15,WeatherDisplay:10.37,2013-03-12 17:30:00,
2013-03-12 18:40:00,51.2,47.2,29.58,SW,232,9.0,17.0,86,0.00,CLR,,0.15,WeatherDisplay:10.37,2013-03-12 17:40:00,
2013-03-12 18:50:00,51.4,47.0,29.58,WSW,252,6.0,18.0,85,0.00,CLR,,0.15,WeatherDisplay:10.37,2013-03-12 17:50:00,
2013-03-12 19:00:00,51.5,46.8,29.57,West,267,6.0,16.0,84,0.00,CLR,,0.15,WeatherDisplay:10.37,2013-03-12 18:00:00,
2013-03-12 19:10:00,51.6,47.2,29.57,West,262,5.0,14.0,85,0.00,CLR,,0.15,WeatherDisplay:10.37,2013-03-12 18:10:00,
2013-03-12 19:20:00,51.7,47.0,29.57,WSW,250,5.0,14.0,84,0.00,CLR,,0.15,WeatherDisplay:10.37,2013-03-12 18:20:00,
2013-03-12 19:30:00,51.7,46.7,29.57,WSW,242,5.0,16.0,83,0.00,CLR,,0.15,WeatherDisplay:10.37,2013-03-12 18:30:00,
2013-03-12 19:40:00,51.7,47.0,29.57,SW,216,6.0,17.0,84,0.00,CLR,,0.15,WeatherDisplay:10.37,2013-03-12 18:40:00,
2013-03-12 19:50:00,51.8,47.5,29.57,SW,227,6.0,17.0,85,0.00,CLR,,0.15,WeatherDisplay:10.37,2013-03-12 18:50:00,
2013-03-12 20:00:00,51.6,48.2,29.56,SSW,201,5.0,18.0,88,0.01,RA,,0.16,WeatherDisplay:10.37,2013-03-12 19:00:00,
2013-03-12 20:10:00,51.5,48.0,29.56,SW,221,5.0,18.0,88,0.00,RA,,0.16,WeatherDisplay:10.37,2013-03-12 19:10:00,
2013-03-12 20:20:00,51.6,48.4,29.56,SSW,209,7.0,16.0,89,0.00,RA,,0.16,WeatherDisplay:10.37,2013-03-12 19:20:00,
2013-03-12 20:30:00,51.7,48.3,29.56,SSW,199,7.0,18.0,88,0.00,CLR,,0.16,WeatherDisplay:10.37,2013-03-12 19:30:00,
2013-03-12 20:40:00,51.6,47.9,29.55,SW,218,9.0,16.0,87,0.00,CLR,,0.16,WeatherDisplay:10.37,2013-03-12 19:40:00,
2013-03-12 20:50:00,51.5,48.4,29.55,SSW,203,3.0,18.0,89,0.00,CLR,,0.16,WeatherDisplay:10.37,2013-03-12 19:50:00,
2013-03-12 21:00:00,51.4,48.3,29.56,SW,222,5.0,12.0,89,0.01,RA,,0.17,WeatherDisplay:10.37,2013-03-12 20:00:00,
2013-03-12 21:10:00,51.1,48.0,29.55,SSW,213,2.0,12.0,89,0.00,RA,,0.17,WeatherDisplay:10.37,2013-03-12 20:10:00,
2013-03-12 21:20:00,51.2,48.4,29.55,South,174,6.0,16.0,90,0.00,RA,,0.17,WeatherDisplay:10.37,2013-03-12 20:20:00,
2013-03-12 21:30:00,51.4,48.2,29.54,West,273,9.0,20.0,89,0.00,,,0.17,WeatherDisplay:10.37,2013-03-12 20:30:00,
2013-03-12 21:40:00,50.2,46.1,29.55,WNW,284,10.0,20.0,86,0.00,CLR,,0.17,WeatherDisplay:10.37,2013-03-12 20:40:00,
2013-03-12 21:50:00,49.9,46.5,29.56,WNW,297,9.0,20.0,88,0.00,CLR,,0.17,WeatherDisplay:10.37,2013-03-12 20:50:00,
2013-03-12 22:00:00,49.7,46.6,29.56,WNW,287,8.0,18.0,89,0.00,CLR,,0.17,WeatherDisplay:10.37,2013-03-12 21:00:00,
2013-03-12 22:10:00,49.5,46.7,29.57,WNW,291,7.0,18.0,90,0.00,CLR,,0.17,WeatherDisplay:10.37,2013-03-12 21:10:00,
2013-03-12 22:20:00,49.3,46.8,29.57,West,269,6.0,16.0,91,0.02,RA,,0.18,WeatherDisplay:10.37,2013-03-12 21:20:00,
2013-03-12 22:30:00,48.9,46.6,29.57,WNW,301,5.0,12.0,92,0.02,RA,,0.20,WeatherDisplay:10.37,2013-03-12 21:30:00,
2013-03-12 22:40:00,48.5,46.6,29.57,WNW,284,5.0,12.0,93,0.02,RA,,0.22,WeatherDisplay:10.37,2013-03-12 21:40:00,
2013-03-12 22:50:00,48.5,46.8,29.56,West,279,6.0,12.0,94,0.01,RA,,0.23,WeatherDisplay:10.37,2013-03-12 21:50:00,
2013-03-12 23:00:00,48.5,46.9,29.56,West,276,1.0,9.0,94,0.00,RA,,0.23,WeatherDisplay:10.37,2013-03-12 22:00:00,